Stündliche Wetter Holstovo

Heute, 25 Juni, Freitag

Zeit Temperatur Niederschläge Wind Luftdruck Luftfeuchtigkeit
00:00 +20°C° 0.5 mm 2 m/S 745 mmHg 85%
01:00 +20°C° 0.5 mm 2 m/S 745 mmHg 90%
02:00 +19°C° 0.5 mm 2 m/S 745 mmHg 94%
03:00 +19°C° 0.3 mm 2 m/S 745 mmHg 94%
04:00 +19°C° 0.3 mm 2 m/S 745 mmHg 94%
05:00 +19°C° 0.3 mm 2 m/S 745 mmHg 94%
06:00 +20°C° 0.7 mm 2 m/S 745 mmHg 92%
07:00 +21°C° 0.7 mm 2 m/S 744 mmHg 90%
08:00 +23°C° 0.7 mm 2 m/S 744 mmHg 88%
09:00 +24°C° 0 mm 2 m/S 744 mmHg 83%
10:00 +26°C° 0 mm 2 m/S 745 mmHg 78%
11:00 +27°C° 0 mm 2 m/S 745 mmHg 73%
12:00 +28°C° 0 mm 2 m/S 745 mmHg 70%
13:00 +29°C° 0 mm 2 m/S 744 mmHg 67%
14:00 +30°C° 0 mm 3 m/S 744 mmHg 64%
15:00 +30°C° 1.9 mm 2 m/S 743 mmHg 69%
16:00 +29°C° 1.9 mm 2 m/S 743 mmHg 74%
17:00 +28°C° 1.9 mm 2 m/S 742 mmHg 78%
18:00 +25°C° 8.6 mm 2 m/S 743 mmHg 84%
19:00 +22°C° 8.6 mm 3 m/S 744 mmHg 89%
20:00 +19°C° 8.6 mm 3 m/S 744 mmHg 95%
21:00 +19°C° 0.1 mm 3 m/S 744 mmHg 95%
22:00 +19°C° 0.1 mm 3 m/S 745 mmHg 96%
23:00 +19°C° 0.1 mm 3 m/S 745 mmHg 96%

Morgen, 26 Juni, Samstag

Zeit Temperatur Niederschläge Wind Luftdruck Luftfeuchtigkeit
00:00 +19°C° 0 mm 3 m/S 745 mmHg 96%
01:00 +18°C° 0 mm 3 m/S 745 mmHg 96%
02:00 +18°C° 0 mm 3 m/S 745 mmHg 96%
03:00 +18°C° 0 mm 3 m/S 745 mmHg 96%
04:00 +17°C° 0 mm 3 m/S 746 mmHg 96%
05:00 +16°C° 0 mm 3 m/S 746 mmHg 96%
06:00 +17°C° 0 mm 3 m/S 746 mmHg 92%
07:00 +18°C° 0 mm 3 m/S 746 mmHg 88%
08:00 +19°C° 0 mm 4 m/S 747 mmHg 83%
09:00 +20°C° 0 mm 4 m/S 747 mmHg 79%
10:00 +21°C° 0 mm 4 m/S 747 mmHg 74%
11:00 +22°C° 0 mm 4 m/S 747 mmHg 69%
12:00 +22°C° 0 mm 4 m/S 747 mmHg 66%
13:00 +24°C° 0 mm 3 m/S 747 mmHg 63%
14:00 +25°C° 0 mm 3 m/S 747 mmHg 60%
15:00 +25°C° 0 mm 3 m/S 747 mmHg 61%
16:00 +25°C° 0 mm 3 m/S 747 mmHg 61%
17:00 +25°C° 0 mm 3 m/S 747 mmHg 62%
18:00 +22°C° 0 mm 3 m/S 747 mmHg 68%
19:00 +21°C° 0 mm 2 m/S 747 mmHg 74%
20:00 +20°C° 0 mm 2 m/S 747 mmHg 79%
21:00 +19°C° 0 mm 2 m/S 747 mmHg 82%
22:00 +18°C° 0 mm 2 m/S 747 mmHg 85%
23:00 +17°C° 0 mm 2 m/S 747 mmHg 88%

übermorgen, 27 Juni, Sonntag

Zeit Temperatur Niederschläge Wind Luftdruck Luftfeuchtigkeit
00:00 +17°C° 0 mm 2 m/S 747 mmHg 90%
01:00 +16°C° 0 mm 2 m/S 747 mmHg 91%
02:00 +16°C° 0 mm 2 m/S 747 mmHg 93%
03:00 +16°C° 0 mm 2 m/S 748 mmHg 93%
04:00 +15°C° 0 mm 2 m/S 748 mmHg 94%
05:00 +15°C° 0 mm 2 m/S 748 mmHg 94%
06:00 +17°C° 0 mm 2 m/S 748 mmHg 88%
07:00 +18°C° 0 mm 2 m/S 748 mmHg 82%
08:00 +19°C° 0 mm 3 m/S 748 mmHg 77%
09:00 +20°C° 0 mm 3 m/S 748 mmHg 72%
10:00 +22°C° 0 mm 3 m/S 748 mmHg 67%
11:00 +24°C° 0 mm 3 m/S 748 mmHg 63%
12:00 +24°C° 0 mm 3 m/S 748 mmHg 60%
13:00 +25°C° 0 mm 4 m/S 748 mmHg 58%
14:00 +25°C° 0 mm 4 m/S 748 mmHg 56%
15:00 +25°C° 0 mm 3 m/S 748 mmHg 57%
16:00 +25°C° 0 mm 3 m/S 748 mmHg 58%
17:00 +25°C° 0 mm 3 m/S 748 mmHg 59%
18:00 +24°C° 0 mm 2 m/S 748 mmHg 64%
19:00 +23°C° 0 mm 2 m/S 748 mmHg 70%
20:00 +20°C° 0 mm 2 m/S 748 mmHg 76%
21:00 +19°C° 0 mm 2 m/S 748 mmHg 77%
22:00 +18°C° 0 mm 2 m/S 748 mmHg 79%
23:00 +17°C° 0 mm 2 m/S 748 mmHg 81%

28 Juni, Montag

Zeit Temperatur Niederschläge Wind Luftdruck Luftfeuchtigkeit
00:00 +16°C° 0 mm 2 m/S 748 mmHg 81%
01:00 +16°C° 0 mm 2 m/S 748 mmHg 80%
02:00 +15°C° 0 mm 1 m/S 748 mmHg 80%
03:00 +15°C° 0 mm 1 m/S 748 mmHg 82%
04:00 +15°C° 0 mm 1 m/S 748 mmHg 84%
05:00 +15°C° 0 mm 2 m/S 748 mmHg 86%
06:00 +16°C° 0 mm 2 m/S 748 mmHg 82%
07:00 +18°C° 0 mm 2 m/S 748 mmHg 78%
08:00 +20°C° 0 mm 2 m/S 749 mmHg 74%
09:00 +21°C° 0 mm 2 m/S 749 mmHg 70%
10:00 +23°C° 0 mm 2 m/S 749 mmHg 65%
11:00 +24°C° 0 mm 3 m/S 749 mmHg 61%
12:00 +24°C° 0 mm 3 m/S 749 mmHg 58%
13:00 +25°C° 0 mm 3 m/S 748 mmHg 56%
14:00 +26°C° 0 mm 3 m/S 748 mmHg 53%
15:00 +25°C° 0 mm 3 m/S 748 mmHg 57%
16:00 +25°C° 0 mm 3 m/S 748 mmHg 60%
17:00 +25°C° 0 mm 3 m/S 748 mmHg 64%
18:00 +24°C° 0 mm 3 m/S 747 mmHg 68%
19:00 +21°C° 0 mm 2 m/S 747 mmHg 72%
20:00 +20°C° 0 mm 2 m/S 747 mmHg 75%
21:00 +19°C° 0 mm 2 m/S 747 mmHg 79%
22:00 +18°C° 0 mm 2 m/S 747 mmHg 82%
23:00 +17°C° 0 mm 2 m/S 747 mmHg 85%

29 Juni, Dienstag

Zeit Temperatur Niederschläge Wind Luftdruck Luftfeuchtigkeit
00:00 +16°C° 0 mm 1 m/S 747 mmHg 87%
01:00 +16°C° 0 mm 1 m/S 747 mmHg 88%
02:00 +16°C° 0 mm 1 m/S 747 mmHg 89%
03:00 +16°C° 0 mm 1 m/S 747 mmHg 90%
04:00 +16°C° 0 mm 1 m/S 747 mmHg 90%
05:00 +16°C° 0 mm 1 m/S 747 mmHg 90%
06:00 +17°C° 0 mm 2 m/S 747 mmHg 85%
07:00 +19°C° 0 mm 2 m/S 747 mmHg 80%
08:00 +21°C° 0 mm 2 m/S 747 mmHg 75%
09:00 +23°C° 0 mm 2 m/S 747 mmHg 69%
10:00 +24°C° 0 mm 2 m/S 747 mmHg 64%
11:00 +25°C° 0 mm 2 m/S 746 mmHg 59%
12:00 +26°C° 0 mm 2 m/S 746 mmHg 56%
13:00 +26°C° 0 mm 2 m/S 746 mmHg 54%
14:00 +27°C° 0 mm 2 m/S 746 mmHg 51%
15:00 +27°C° 0 mm 2 m/S 746 mmHg 51%
16:00 +27°C° 0 mm 2 m/S 745 mmHg 52%
17:00 +27°C° 0 mm 1 m/S 745 mmHg 52%
18:00 +26°C° 0 mm 1 m/S 745 mmHg 58%
19:00 +24°C° 0 mm 1 m/S 745 mmHg 64%
20:00 +23°C° 0 mm 1 m/S 744 mmHg 70%
21:00 +22°C° 0 mm 1 m/S 744 mmHg 73%
22:00 +21°C° 0 mm 1 m/S 744 mmHg 75%
23:00 +20°C° 0 mm 1 m/S 744 mmHg 77%

30 Juni, Mittwoch

Zeit Temperatur Niederschläge Wind Luftdruck Luftfeuchtigkeit
00:00 +19°C° 0 mm 1 m/S 744 mmHg 79%
01:00 +19°C° 0 mm 1 m/S 744 mmHg 80%
02:00 +18°C° 0 mm 1 m/S 744 mmHg 81%
03:00 +17°C° 0 mm 2 m/S 743 mmHg 82%
04:00 +17°C° 0 mm 2 m/S 743 mmHg 82%
05:00 +17°C° 0 mm 2 m/S 743 mmHg 83%
06:00 +19°C° 0 mm 2 m/S 743 mmHg 78%
07:00 +20°C° 0 mm 3 m/S 743 mmHg 74%
08:00 +22°C° 0 mm 3 m/S 743 mmHg 70%
09:00 +24°C° 0 mm 3 m/S 742 mmHg 65%
10:00 +26°C° 0 mm 3 m/S 742 mmHg 60%
11:00 +27°C° 0 mm 4 m/S 742 mmHg 55%
12:00 +28°C° 0 mm 4 m/S 742 mmHg 54%
13:00 +28°C° 0 mm 4 m/S 741 mmHg 52%
14:00 +29°C° 0 mm 4 m/S 741 mmHg 50%
15:00 +29°C° 0 mm 3 m/S 741 mmHg 53%
16:00 +29°C° 0 mm 3 m/S 741 mmHg 56%
17:00 +29°C° 0 mm 3 m/S 741 mmHg 59%
18:00 +27°C° 0.3 mm 3 m/S 740 mmHg 67%
19:00 +25°C° 0.3 mm 3 m/S 740 mmHg 74%
20:00 +22°C° 0.3 mm 3 m/S 740 mmHg 82%
21:00 +21°C° 0.8 mm 2 m/S 740 mmHg 85%
22:00 +20°C° 0.8 mm 2 m/S 740 mmHg 88%
23:00 +20°C° 0.8 mm 1 m/S 740 mmHg 91%
Mehr zeigen

Wir brauchen deine Erlaubnis

Meteoprog und unser Service Anbieter werden persönliche Daten aufbewahren, so wie Cookies, Geräte Bezeichnung oder ähnliche Technologien von deinem Gerät und Prozess, so wie Persönliche Daten Inhalte und Werbungen, genauso wie social Media und den Verkehr zu analysieren.

  • Aufbewahrung und/oder Zugang zu deiner Geräte Informationen.

    Cookies, Geräte Bezeichnung oder andere Informationen, können aufbewahrt oder Zugang zu deinem Gerät erhalten, für den Grund, der oben angegeben wird.

  • Personalisierte Werbung und Inhalte, Messungen, Einblick in das Publikum und Produkt Entwicklung.

    Werbungen und Inhalte können personalisiert werden, basierend auf ein Profil. Mehr Daten können besser personalisierte Werbungen und Inhalte hinzufügen. Werbung und Inhalte können gezeigt und gemessen werden. Einblicke über das Publikum, welche die Werbung gesehen haben und den Inhalt, können abgeleitet werden. So wie Daten können genutzt werden, um es zu verbessern oder die Benutzer Erfahrung zu verbessern das System und die Software.

Wenn du “Ich stimme zu” klickst, erlaubst du uns, die Cookies zu benutzen die Geräte Bezeichnung, den Web oder ähnliche Technologien zu benutzen. Deine Settings, können in deinem Gerät bei deinem Browser geändert werden.

Für den bestimmten Zweck, berechtigten Interessen beruhen darauf, mehr als auf den Inhalt. Du kannst mehr darüber in unseren Privaten und Cookie Politik lesen.